Weather History for Sault Ste Marie, MI

Change the Weather History Date:

Monday, August 26, 2013

  Actual Average Record
Temperature  
Mean Temperature 74 °F 63 °F  
Max Temperature 82 °F 73 °F 92 °F (1948)
Min Temperature 66 °F 53 °F 38 °F (1917)
Degree Days  
Heating Degree Days 0 3  
Month to date heating degree days 66 58  
Since 1 June heating degree days 262 307  
Since 1 July heating degree days 116 127  
Cooling Degree Days 9 1  
Month to date cooling degree days 50 62  
Year to date cooling degree days 214 175  
Since 1 June cooling degree days 205 170  
Growing Degree Days 24 (Base 50)    
Moisture  
Dew Point 67 °F    
Average Humidity 78    
Maximum Humidity 93    
Minimum Humidity 62    
Precipitation  
Precipitation 1.26 in 0.10 in 1.26 in (2013)
Month to date precipitation 4.42 2.63  
Year to date precipitation 27.67 18.63  
Sea Level Pressure  
Sea Level Pressure 29.94 in    
Wind  
Wind Speed 7 mph (West)    
Max Wind Speed 29 mph    
Max Gust Speed 42 mph    
Visibility 6 miles    
Events Fog , Rain , Thunderstorm    
T = Trace of Precipitation, MM = Missing Value Source: NWS Daily Summary

Daily Weather History Graph

Daily Weather History Graph

Search for Another Location

Airport:

Trip Planner

Search our weather history database for the weather conditions in past years. The results will help you decide how hot, cold, wet, or windy it might be!

Date:

Astronomy

Aug. 26, 2013 Rise Set
Actual Time 6:50 AM EDT 8:27 PM EDT
Civil Twilight 6:18 AM EDT 8:58 PM EDT
Nautical Twilight 5:39 AM EDT 9:37 PM EDT
Astronomical Twilight 4:57 AM EDT 10:18 PM EDT
Moon 11:12 PM EDT (8/26) 1:15 PM EDT (8/26)
Length of Visible Light 14h 40m
Length of Day
13h 36m
Waning Gibbous, 67% of the Moon is Illuminated
Aug 26
Waning Gibbous
Aug 28
Last Quarter
Sep 5
New
Sep 12
First Quarter
Sep 19
Full

Hourly Weather History & Observations

Time (EDT) Temp. Heat Index Dew Point Humidity Pressure Visibility Wind Dir Wind Speed Gust Speed Precip Events Conditions
12:04 AM 70.0 °F - 68.0 °F 93% 29.95 in 6.0 mi Calm Calm - 0.00 in Thunderstorm Mostly Cloudy
12:36 AM 71.1 °F - 68.0 °F 90% 29.98 in 7.0 mi Calm Calm - 0.00 in Thunderstorm Mostly Cloudy
12:51 AM 69.8 °F - 68.0 °F 94% 29.97 in 3.0 mi WNW 6.9 mph - 0.01 in Rain , Thunderstorm Heavy Thunderstorms and Rain
12:55 AM 70.0 °F - 68.0 °F 93% 29.98 in 1.8 mi West 6.9 mph - 0.04 in Rain , Thunderstorm Heavy Thunderstorms and Rain
1:00 AM 70.0 °F - 68.0 °F 93% 29.99 in 1.2 mi West 13.8 mph 21.9 mph 0.06 in Rain , Thunderstorm Heavy Rain
1:05 AM 70.0 °F - 68.0 °F 93% 29.97 in 1.5 mi NW 9.2 mph 21.9 mph 0.16 in Rain , Thunderstorm Heavy Rain
1:10 AM 69.1 °F - 68.0 °F 96% 29.97 in 3.0 mi NNW 6.9 mph - 0.17 in Rain , Thunderstorm Rain
1:55 AM 69.1 °F - 66.9 °F 93% 29.92 in 5.0 mi SW 4.6 mph - 0.21 in Rain , Thunderstorm Light Rain
2:01 AM 69.1 °F - 66.9 °F 93% 29.94 in 2.0 mi SSW 11.5 mph - 0.05 in Rain , Thunderstorm Heavy Thunderstorms and Rain
2:23 AM 69.1 °F - 66.9 °F 93% 29.92 in 8.0 mi WSW 11.5 mph - 0.21 in Rain , Thunderstorm Light Thunderstorms and Rain
2:55 AM 72.0 °F - 68.0 °F 87% 29.91 in 10.0 mi SW 12.7 mph - 0.28 in Thunderstorm Mostly Cloudy
3:03 AM 72.0 °F - 68.0 °F 87% 29.91 in 10.0 mi SW 12.7 mph - N/A   Scattered Clouds
3:55 AM 73.0 °F - 68.0 °F 84% 29.89 in 8.0 mi SW 8.1 mph - N/A   Scattered Clouds
4:39 AM 71.1 °F - 68.0 °F 90% 29.92 in 2.0 mi Calm Calm - 0.04 in Rain Light Rain
4:55 AM 70.0 °F - 68.0 °F 93% 29.91 in 5.0 mi Calm Calm - 0.06 in Rain , Thunderstorm Light Thunderstorms and Rain
5:04 AM 70.0 °F - 68.0 °F 93% 29.92 in 5.0 mi North 6.9 mph - 0.00 in Rain , Thunderstorm Light Thunderstorms and Rain
5:10 AM 71.1 °F - 68.0 °F 90% 29.93 in 2.0 mi NW 12.7 mph 21.9 mph 0.02 in Rain , Thunderstorm Heavy Thunderstorms and Rain
5:14 AM 71.1 °F - 68.0 °F 90% 29.93 in 0.8 mi NW 28.8 mph 41.4 mph 0.17 in Rain , Thunderstorm Heavy Thunderstorms and Rain
5:23 AM 71.1 °F - 68.0 °F 90% 29.91 in 1.0 mi NW 12.7 mph 36.8 mph 0.54 in Rain , Thunderstorm Heavy Thunderstorms and Rain
5:27 AM 71.1 °F - 68.0 °F 90% 29.92 in 3.0 mi NNW 10.4 mph 25.3 mph 0.56 in Rain , Thunderstorm Light Thunderstorms and Rain
5:35 AM 70.0 °F - 68.0 °F 93% 29.94 in 10.0 mi West 6.9 mph - 0.56 in Rain , Thunderstorm Light Thunderstorms and Rain
5:48 AM 70.0 °F - 66.9 °F 90% 29.99 in 8.0 mi West 18.4 mph 36.8 mph 0.57 in Rain , Thunderstorm Light Rain
5:55 AM 71.1 °F - 66.9 °F 87% 29.98 in 10.0 mi West 17.3 mph 36.8 mph 0.57 in Rain , Thunderstorm Light Rain
6:11 AM 70.0 °F - 66.9 °F 90% 29.95 in 7.0 mi West 6.9 mph - 0.01 in Rain Rain
6:43 AM 69.1 °F - 66.0 °F 90% 29.95 in 6.0 mi WNW 5.8 mph - 0.08 in Rain , Thunderstorm Rain
6:55 AM 69.1 °F - 66.0 °F 90% 29.95 in 5.0 mi WNW 6.9 mph - 0.11 in Rain , Thunderstorm Rain
7:20 AM 69.1 °F - 66.0 °F 90% 29.90 in 9.0 mi ENE 4.6 mph - 0.05 in Rain Light Rain
7:55 AM 69.1 °F - 66.0 °F 90% 29.86 in 10.0 mi East 5.8 mph - 0.07 in Rain Light Rain
8:25 AM 69.1 °F - 64.9 °F 87% 29.92 in 10.0 mi South 13.8 mph - 0.00 in   Partly Cloudy
8:55 AM 69.1 °F - 66.0 °F 90% 29.98 in 10.0 mi WNW 12.7 mph - 0.00 in   Scattered Clouds
9:04 AM 70.0 °F - 66.9 °F 90% 29.99 in 10.0 mi West 8.1 mph - N/A   Scattered Clouds
9:55 AM 71.1 °F - 66.9 °F 87% 29.95 in 10.0 mi West 6.9 mph - N/A   Clear
10:55 AM 73.9 °F - 68.0 °F 82% 29.96 in 10.0 mi WNW 8.1 mph - N/A   Clear
11:55 AM 75.9 °F - 68.0 °F 76% 29.96 in 10.0 mi West 6.9 mph - N/A   Clear
12:55 PM 77.0 °F - 69.1 °F 76% 29.97 in 10.0 mi Variable 3.5 mph - N/A   Partly Cloudy
1:25 PM 78.1 °F - 69.1 °F 74% 29.97 in 10.0 mi West 8.1 mph - N/A   Mostly Cloudy
1:38 PM 78.1 °F - 68.0 °F 71% 29.97 in 10.0 mi West 11.5 mph - N/A   Scattered Clouds
1:55 PM 79.0 °F - 66.9 °F 66% 29.95 in 10.0 mi WNW 8.1 mph - N/A   Clear
2:55 PM 82.0 °F 85.9 °F 70.0 °F 67% 29.94 in 10.0 mi Variable 5.8 mph - N/A   Clear
3:55 PM 81.0 °F 83.8 °F 68.0 °F 65% 29.92 in 10.0 mi NW 10.4 mph - N/A   Clear
4:55 PM 81.0 °F 83.8 °F 68.0 °F 65% 29.91 in 10.0 mi West 8.1 mph - N/A   Clear
5:55 PM 80.1 °F 82.3 °F 66.9 °F 64% 29.91 in 10.0 mi WNW 9.2 mph - N/A   Clear
6:55 PM 77.0 °F - 68.0 °F 74% 29.92 in 10.0 mi NW 8.1 mph - N/A   Clear
7:55 PM 70.0 °F - 66.0 °F 87% 29.92 in 10.0 mi NW 9.2 mph - N/A   Clear
8:55 PM 69.1 °F - 64.9 °F 87% 29.93 in 10.0 mi NW 4.6 mph - N/A   Clear
9:55 PM 66.9 °F - 64.9 °F 93% 29.95 in 10.0 mi West 5.8 mph - N/A   Clear
10:16 PM 66.0 °F - 64.0 °F 93% 29.96 in 3.0 mi SW 4.6 mph - N/A   Scattered Clouds
10:18 PM 66.0 °F - 64.0 °F 93% 29.96 in 1.5 mi SW 5.8 mph - N/A   Mostly Cloudy
10:29 PM 66.0 °F - 64.0 °F 93% 29.95 in 0.5 mi SW 5.8 mph - N/A Fog Fog
10:55 PM 66.0 °F - 64.9 °F 96% 29.94 in 0.5 mi Calm Calm - N/A Fog Fog
11:30 PM 66.0 °F - 64.9 °F 96% 29.95 in 2.0 mi West 4.6 mph - N/A   Overcast
11:38 PM 66.0 °F - 64.9 °F 96% 29.96 in 3.0 mi WNW 5.8 mph - N/A   Overcast
11:44 PM 66.0 °F - 64.9 °F 96% 29.96 in 1.8 mi WNW 4.6 mph - N/A   Overcast
11:55 PM 66.9 °F - 64.9 °F 93% 29.94 in 1.0 mi NW 5.8 mph - N/A   Mist